Hourly Weather Holubychi

Today, 11 April, Sunday

Time Temperature Precipitation Wind Pressure Humidity
00:00 +3°C° 0 mm 3 mps 755 mmHg 69%
01:00 +3°C° 0 mm 3 mps 755 mmHg 70%
02:00 +3°C° 0 mm 3 mps 755 mmHg 72%
03:00 +3°C° 0 mm 3 mps 755 mmHg 73%
04:00 +3°C° 0 mm 2 mps 756 mmHg 73%
05:00 +3°C° 0 mm 2 mps 756 mmHg 74%
06:00 +5°C° 0 mm 2 mps 756 mmHg 69%
07:00 +6°C° 0 mm 2 mps 757 mmHg 63%
08:00 +8°C° 0 mm 2 mps 757 mmHg 58%
09:00 +9°C° 0 mm 3 mps 757 mmHg 53%
10:00 +11°C° 0 mm 3 mps 757 mmHg 48%
11:00 +13°C° 0 mm 3 mps 757 mmHg 43%
12:00 +13°C° 0 mm 3 mps 757 mmHg 41%
13:00 +14°C° 0 mm 3 mps 757 mmHg 39%
14:00 +16°C° 0 mm 2 mps 757 mmHg 38%
15:00 +15°C° 0 mm 2 mps 757 mmHg 40%
16:00 +15°C° 0 mm 2 mps 757 mmHg 42%
17:00 +15°C° 0 mm 2 mps 757 mmHg 44%
18:00 +13°C° 0 mm 2 mps 757 mmHg 49%
19:00 +10°C° 0 mm 2 mps 757 mmHg 54%
20:00 +9°C° 0 mm 2 mps 757 mmHg 59%
21:00 +8°C° 0 mm 2 mps 757 mmHg 61%
22:00 +7°C° 0 mm 2 mps 757 mmHg 63%
23:00 +7°C° 0 mm 2 mps 757 mmHg 65%

Tomorrow, 12 April, Monday

Time Temperature Precipitation Wind Pressure Humidity
00:00 +6°C° 0 mm 2 mps 757 mmHg 67%
01:00 +6°C° 0 mm 2 mps 757 mmHg 69%
02:00 +5°C° 0 mm 2 mps 757 mmHg 70%
03:00 +5°C° 0 mm 2 mps 757 mmHg 72%
04:00 +5°C° 0 mm 2 mps 757 mmHg 73%
05:00 +4°C° 0 mm 2 mps 756 mmHg 74%
06:00 +5°C° 0 mm 3 mps 756 mmHg 69%
07:00 +7°C° 0 mm 3 mps 756 mmHg 63%
08:00 +8°C° 0 mm 4 mps 756 mmHg 58%
09:00 +10°C° 0 mm 4 mps 755 mmHg 53%
10:00 +11°C° 0 mm 3 mps 755 mmHg 49%
11:00 +13°C° 0 mm 3 mps 755 mmHg 44%
12:00 +12°C° 0 mm 3 mps 754 mmHg 52%
13:00 +12°C° 0 mm 3 mps 754 mmHg 60%
14:00 +11°C° 0 mm 3 mps 754 mmHg 68%
15:00 +11°C° 0.1 mm 3 mps 754 mmHg 73%
16:00 +10°C° 0.1 mm 3 mps 754 mmHg 79%
17:00 +10°C° 0.1 mm 2 mps 753 mmHg 84%
18:00 +9°C° 0 mm 2 mps 753 mmHg 85%
19:00 +9°C° 0 mm 2 mps 753 mmHg 87%
20:00 +9°C° 0 mm 2 mps 753 mmHg 88%
21:00 +9°C° 0 mm 2 mps 753 mmHg 89%
22:00 +9°C° 0 mm 2 mps 752 mmHg 89%
23:00 +10°C° 0 mm 1 mps 752 mmHg 89%

Day after tomorrow, 13 April, Tuesday

Time Temperature Precipitation Wind Pressure Humidity
00:00 +9°C° 0 mm 2 mps 752 mmHg 90%
01:00 +9°C° 0 mm 2 mps 752 mmHg 90%
02:00 +9°C° 0 mm 2 mps 752 mmHg 91%
03:00 +9°C° 0 mm 2 mps 751 mmHg 92%
04:00 +9°C° 0 mm 2 mps 751 mmHg 92%
05:00 +8°C° 0 mm 3 mps 751 mmHg 93%
06:00 +9°C° 0 mm 3 mps 751 mmHg 89%
07:00 +10°C° 0 mm 3 mps 751 mmHg 85%
08:00 +11°C° 0 mm 4 mps 751 mmHg 81%
09:00 +12°C° 0 mm 4 mps 751 mmHg 78%
10:00 +13°C° 0 mm 4 mps 751 mmHg 75%
11:00 +14°C° 0 mm 5 mps 751 mmHg 72%
12:00 +14°C° 0 mm 4 mps 751 mmHg 72%
13:00 +14°C° 0 mm 4 mps 751 mmHg 73%
14:00 +14°C° 0 mm 4 mps 751 mmHg 73%
15:00 +14°C° 0 mm 4 mps 750 mmHg 73%
16:00 +14°C° 0 mm 4 mps 750 mmHg 72%
17:00 +14°C° 0 mm 4 mps 750 mmHg 72%
18:00 +13°C° 0 mm 3 mps 750 mmHg 77%
19:00 +12°C° 0 mm 3 mps 750 mmHg 81%
20:00 +11°C° 0 mm 3 mps 750 mmHg 86%
21:00 +10°C° 0 mm 2 mps 750 mmHg 87%
22:00 +10°C° 0 mm 2 mps 750 mmHg 88%
23:00 +10°C° 0 mm 2 mps 749 mmHg 89%

14 April, Wednesday

Time Temperature Precipitation Wind Pressure Humidity
00:00 +10°C° 0 mm 2 mps 749 mmHg 89%
01:00 +10°C° 0 mm 2 mps 749 mmHg 89%
02:00 +10°C° 0 mm 2 mps 749 mmHg 90%
03:00 +9°C° 0 mm 2 mps 749 mmHg 90%
04:00 +9°C° 0 mm 2 mps 749 mmHg 90%
05:00 +8°C° 0 mm 2 mps 749 mmHg 91%
06:00 +9°C° 0 mm 2 mps 749 mmHg 89%
07:00 +9°C° 0 mm 2 mps 749 mmHg 87%
08:00 +10°C° 0 mm 2 mps 749 mmHg 85%
09:00 +12°C° 0.1 mm 2 mps 749 mmHg 82%
10:00 +11°C° 0.1 mm 3 mps 749 mmHg 78%
11:00 +12°C° 0.1 mm 3 mps 749 mmHg 74%
12:00 +13°C° 0 mm 3 mps 748 mmHg 71%
13:00 +14°C° 0 mm 2 mps 748 mmHg 67%
14:00 +15°C° 0 mm 2 mps 748 mmHg 63%
15:00 +15°C° 0.2 mm 2 mps 748 mmHg 65%
16:00 +14°C° 0.2 mm 2 mps 747 mmHg 67%
17:00 +14°C° 0.2 mm 2 mps 747 mmHg 69%
18:00 +13°C° 0.8 mm 2 mps 747 mmHg 75%
19:00 +12°C° 0.8 mm 2 mps 747 mmHg 81%
20:00 +10°C° 0.8 mm 2 mps 748 mmHg 88%
21:00 +11°C° 0.2 mm 1 mps 747 mmHg 88%
22:00 +10°C° 0.2 mm 1 mps 747 mmHg 88%
23:00 +10°C° 0.2 mm 1 mps 747 mmHg 88%

15 April, Thursday

Time Temperature Precipitation Wind Pressure Humidity
00:00 +10°C° 0 mm 1 mps 747 mmHg 88%
01:00 +9°C° 0 mm 1 mps 747 mmHg 88%
02:00 +9°C° 0 mm 1 mps 747 mmHg 88%
03:00 +9°C° 0 mm 1 mps 747 mmHg 89%
04:00 +9°C° 0 mm 1 mps 747 mmHg 89%
05:00 +9°C° 0 mm 1 mps 747 mmHg 90%
06:00 +9°C° 0 mm 1 mps 747 mmHg 87%
07:00 +10°C° 0 mm 1 mps 748 mmHg 84%
08:00 +11°C° 0 mm 1 mps 748 mmHg 82%
09:00 +12°C° 0.1 mm 1 mps 748 mmHg 76%
10:00 +13°C° 0.1 mm 1 mps 748 mmHg 70%
11:00 +14°C° 0.1 mm 1 mps 748 mmHg 64%
12:00 +15°C° 0.1 mm 1 mps 747 mmHg 60%
13:00 +16°C° 0.1 mm 1 mps 747 mmHg 56%
14:00 +18°C° 0.1 mm 1 mps 747 mmHg 51%
15:00 +16°C° 0.1 mm 1 mps 747 mmHg 54%
16:00 +16°C° 0.1 mm 1 mps 747 mmHg 56%
17:00 +16°C° 0.1 mm 2 mps 747 mmHg 59%
18:00 +14°C° 0 mm 2 mps 747 mmHg 64%
19:00 +13°C° 0 mm 2 mps 747 mmHg 69%
20:00 +11°C° 0 mm 3 mps 747 mmHg 74%
21:00 +11°C° 0 mm 3 mps 746 mmHg 76%
22:00 +10°C° 0 mm 3 mps 746 mmHg 78%
23:00 +10°C° 0 mm 3 mps 746 mmHg 80%

16 April, Friday

Time Temperature Precipitation Wind Pressure Humidity
00:00 +10°C° 0.1 mm 3 mps 746 mmHg 83%
01:00 +9°C° 0.1 mm 3 mps 746 mmHg 85%
02:00 +9°C° 0.1 mm 3 mps 746 mmHg 87%
03:00 +9°C° 0.3 mm 3 mps 746 mmHg 88%
04:00 +10°C° 0.3 mm 4 mps 745 mmHg 88%
05:00 +10°C° 0.3 mm 4 mps 745 mmHg 88%
06:00 +9°C° 0.1 mm 5 mps 745 mmHg 87%
07:00 +9°C° 0.1 mm 5 mps 746 mmHg 85%
08:00 +10°C° 0.1 mm 6 mps 746 mmHg 84%
09:00 +10°C° 0.1 mm 6 mps 746 mmHg 84%
10:00 +10°C° 0.1 mm 6 mps 746 mmHg 84%
11:00 +10°C° 0.1 mm 6 mps 747 mmHg 85%
12:00 +9°C° 0.6 mm 6 mps 747 mmHg 86%
13:00 +9°C° 0.6 mm 6 mps 747 mmHg 87%
14:00 +9°C° 0.6 mm 6 mps 747 mmHg 88%
15:00 +9°C° 0.5 mm 6 mps 748 mmHg 89%
16:00 +9°C° 0.5 mm 6 mps 748 mmHg 89%
17:00 +9°C° 0.5 mm 7 mps 748 mmHg 89%
18:00 +8°C° 0.1 mm 7 mps 749 mmHg 89%
19:00 +8°C° 0.1 mm 7 mps 749 mmHg 89%
20:00 +6°C° 0.1 mm 8 mps 750 mmHg 88%
21:00 +6°C° 0 mm 8 mps 751 mmHg 87%
22:00 +6°C° 0 mm 7 mps 751 mmHg 85%
23:00 +6°C° 0 mm 7 mps 751 mmHg 84%
Show more